DLH2JV EDDM-EDDV

Flight info

Callsign DLH2JV
Flight time 0h 49m
Altitude 30000
Route INPUD2S/26L INPUD Y102 ALIBU DCT WERRA WERRA1Z
Aircraft A20N/M-SDE2E3FGIJ1LORWXYZ/HB1

Departure

Time 2026-05-07 12:17
Airport Munich Airport (EDDM)

Arrival

Time 2026-05-07 13:06
Airport Hannover Airport (EDDV)
Time Latitude Longitude Altitude Speed Heading
2026-05-07 11:32 48.35084 11.81043 1468 ft 0 kts 173°
2026-05-07 12:06 48.35096 11.81041 1468 ft 2 kts 173°
2026-05-07 12:06 48.35111 11.81038 1468 ft 2 kts 174°
2026-05-07 12:06 48.35125 11.81036 1468 ft 2 kts 173°
2026-05-07 12:06 48.35140 11.81033 1468 ft 2 kts 173°
2026-05-07 12:07 48.35155 11.81030 1468 ft 2 kts 177°
2026-05-07 12:07 48.35170 11.81037 1469 ft 2 kts 216°
2026-05-07 12:07 48.35180 11.81054 1469 ft 2 kts 249°
2026-05-07 12:07 48.35182 11.81066 1469 ft 1 kts 267°
2026-05-07 12:08 48.35182 11.81073 1469 ft 0 kts 264°
2026-05-07 12:11 48.35182 11.81070 1469 ft 1 kts 264°
2026-05-07 12:11 48.35178 11.81013 1469 ft 9 kts 264°
2026-05-07 12:11 48.35166 11.80879 1467 ft 16 kts 263°
2026-05-07 12:11 48.35154 11.80717 1473 ft 12 kts 263°
2026-05-07 12:12 48.35144 11.80582 1473 ft 13 kts 264°
2026-05-07 12:12 48.35134 11.80442 1473 ft 13 kts 263°
2026-05-07 12:12 48.35119 11.80300 1473 ft 14 kts 256°
2026-05-07 12:12 48.35104 11.80146 1473 ft 15 kts 263°
2026-05-07 12:13 48.35091 11.79976 1473 ft 16 kts 263°
2026-05-07 12:13 48.35077 11.79796 1474 ft 15 kts 264°
2026-05-07 12:13 48.35053 11.79671 1474 ft 11 kts 213°
2026-05-07 12:13 48.34966 11.79675 1475 ft 13 kts 173°
2026-05-07 12:14 48.34865 11.79691 1475 ft 15 kts 174°
2026-05-07 12:14 48.34752 11.79711 1475 ft 16 kts 174°
2026-05-07 12:14 48.34665 11.79628 1476 ft 16 kts 234°
2026-05-07 12:14 48.34595 11.79485 1476 ft 17 kts 233°
2026-05-07 12:15 48.34521 11.79336 1477 ft 18 kts 234°
2026-05-07 12:15 48.34461 11.79214 1478 ft 14 kts 234°
2026-05-07 12:15 48.34401 11.79085 1478 ft 15 kts 236°
2026-05-07 12:15 48.34365 11.78982 1479 ft 0 kts 263°
2026-05-07 12:16 48.34356 11.78857 1479 ft 43 kts 263°
2026-05-07 12:16 48.34291 11.78018 1482 ft 114 kts 264°
2026-05-07 12:17 48.34173 11.76540 1602 ft 159 kts 264°
2026-05-07 12:17 48.34042 11.74902 2239 ft 163 kts 266°
2026-05-07 12:17 48.33901 11.73225 2962 ft 165 kts 263°
2026-05-07 12:17 48.33770 11.71481 3588 ft 175 kts 265°
2026-05-07 12:18 48.33627 11.69578 4104 ft 193 kts 265°
2026-05-07 12:18 48.33749 11.67473 4549 ft 216 kts 293°
2026-05-07 12:18 48.34639 11.65667 5327 ft 225 kts 319°
2026-05-07 12:18 48.36068 11.64582 6040 ft 243 kts 345°
2026-05-07 12:19 48.37815 11.64170 6603 ft 263 kts 349°
2026-05-07 12:19 48.39664 11.63740 7338 ft 273 kts 342°
2026-05-07 12:19 48.41435 11.62757 8238 ft 274 kts 333°
2026-05-07 12:19 48.43163 11.61538 9107 ft 278 kts 331°
2026-05-07 12:20 48.44832 11.60345 9906 ft 283 kts 331°
2026-05-07 12:20 48.46660 11.59062 10663 ft 292 kts 332°
2026-05-07 12:20 48.48567 11.57747 11140 ft 309 kts 333°
2026-05-07 12:20 48.50522 11.56420 11543 ft 327 kts 333°
2026-05-07 12:21 48.52655 11.54987 11933 ft 345 kts 333°
2026-05-07 12:21 48.54890 11.53498 12510 ft 356 kts 334°
2026-05-07 12:21 48.57133 11.52010 13274 ft 359 kts 334°
2026-05-07 12:21 48.59450 11.50473 14060 ft 362 kts 334°
2026-05-07 12:22 48.61608 11.49041 14755 ft 365 kts 334°
2026-05-07 12:22 48.64027 11.47435 15510 ft 369 kts 334°
2026-05-07 12:22 48.66397 11.45860 16225 ft 372 kts 334°
2026-05-07 12:22 48.68747 11.44296 16915 ft 375 kts 334°
2026-05-07 12:23 48.71154 11.42692 17603 ft 378 kts 334°
2026-05-07 12:23 48.73578 11.41075 18271 ft 381 kts 334°
2026-05-07 12:23 48.75996 11.39459 18908 ft 384 kts 334°
2026-05-07 12:23 48.78450 11.37819 19521 ft 387 kts 334°
2026-05-07 12:24 48.80918 11.36166 20128 ft 391 kts 334°
2026-05-07 12:24 48.83383 11.34514 20725 ft 394 kts 334°
2026-05-07 12:24 48.85895 11.32816 21328 ft 397 kts 334°
2026-05-07 12:24 48.88427 11.31104 21928 ft 400 kts 334°
2026-05-07 12:25 48.90992 11.29369 22520 ft 403 kts 334°
2026-05-07 12:25 48.93544 11.27645 23096 ft 406 kts 334°
2026-05-07 12:25 48.96148 11.25886 23666 ft 409 kts 334°
2026-05-07 12:25 48.98743 11.24134 24199 ft 412 kts 335°
2026-05-07 12:26 49.01411 11.22333 24701 ft 415 kts 334°
2026-05-07 12:26 49.04063 11.20538 25208 ft 418 kts 334°
2026-05-07 12:26 49.06715 11.18743 25679 ft 421 kts 334°
2026-05-07 12:26 49.09386 11.16933 26128 ft 424 kts 335°
2026-05-07 12:27 49.12108 11.15093 26600 ft 426 kts 334°
2026-05-07 12:27 49.14799 11.13276 27206 ft 424 kts 334°
2026-05-07 12:27 49.17476 11.11465 27857 ft 421 kts 334°
2026-05-07 12:27 49.20132 11.09661 28460 ft 419 kts 335°
2026-05-07 12:28 49.22811 11.07838 28944 ft 419 kts 335°
2026-05-07 12:28 49.25481 11.06017 29343 ft 420 kts 335°
2026-05-07 12:28 49.28134 11.04205 29726 ft 422 kts 335°
2026-05-07 12:28 49.30827 11.02364 29975 ft 423 kts 335°
2026-05-07 12:29 49.33527 11.00516 29982 ft 423 kts 335°
2026-05-07 12:29 49.39005 10.97160 29995 ft 424 kts 339°
2026-05-07 12:30 49.44560 10.94064 30002 ft 423 kts 340°
2026-05-07 12:30 49.50098 10.90951 30000 ft 423 kts 340°
2026-05-07 12:31 49.55625 10.87805 29997 ft 424 kts 340°
2026-05-07 12:31 49.61146 10.84649 29981 ft 426 kts 340°
2026-05-07 12:32 49.66680 10.81474 29981 ft 427 kts 341°
2026-05-07 12:32 49.72282 10.78251 29978 ft 428 kts 341°
2026-05-07 12:33 49.80677 10.73408 29973 ft 429 kts 341°
2026-05-07 12:33 49.86295 10.70153 29970 ft 431 kts 341°
2026-05-07 12:34 49.91914 10.66890 29967 ft 431 kts 341°
2026-05-07 12:34 49.97517 10.63627 29970 ft 432 kts 341°
2026-05-07 12:35 50.03170 10.60327 29974 ft 433 kts 341°
2026-05-07 12:35 50.08827 10.57019 29974 ft 434 kts 341°
2026-05-07 12:36 50.14471 10.53719 29975 ft 434 kts 341°
2026-05-07 12:36 50.20128 10.50405 29980 ft 434 kts 341°
2026-05-07 12:37 50.25769 10.47083 29977 ft 434 kts 341°
2026-05-07 12:37 50.31456 10.43723 29976 ft 435 kts 341°
2026-05-07 12:38 50.37120 10.40368 29978 ft 435 kts 341°
2026-05-07 12:38 50.42771 10.37012 29979 ft 436 kts 341°
2026-05-07 12:39 50.48437 10.33633 29977 ft 437 kts 340°
2026-05-07 12:39 50.54113 10.30215 29976 ft 438 kts 340°
2026-05-07 12:40 50.59804 10.26794 29974 ft 439 kts 340°
2026-05-07 12:40 50.65478 10.23385 29971 ft 439 kts 340°
2026-05-07 12:41 50.71158 10.19965 29971 ft 439 kts 340°
2026-05-07 12:41 50.76840 10.16537 29970 ft 439 kts 340°
2026-05-07 12:42 50.82466 10.13132 29973 ft 439 kts 340°
2026-05-07 12:42 50.88181 10.09666 29974 ft 440 kts 340°
2026-05-07 12:43 50.91049 10.07925 29723 ft 440 kts 339°
2026-05-07 12:43 50.93778 10.06267 29456 ft 438 kts 339°
2026-05-07 12:43 50.96638 10.04525 29175 ft 435 kts 339°
2026-05-07 12:43 50.99450 10.02809 28893 ft 432 kts 339°
2026-05-07 12:44 51.02259 10.01092 28525 ft 431 kts 339°
2026-05-07 12:44 51.05038 9.99392 28033 ft 431 kts 339°
2026-05-07 12:44 51.07837 9.97678 27433 ft 432 kts 339°
2026-05-07 12:44 51.10633 9.95964 26783 ft 432 kts 339°
2026-05-07 12:45 51.13409 9.94268 26101 ft 433 kts 339°
2026-05-07 12:45 51.16180 9.92574 25595 ft 427 kts 339°
2026-05-07 12:45 51.18940 9.90881 25162 ft 424 kts 339°
2026-05-07 12:45 51.21507 9.89302 24724 ft 421 kts 339°
2026-05-07 12:46 51.24301 9.87578 24233 ft 418 kts 339°
2026-05-07 12:46 51.26968 9.85932 23762 ft 415 kts 339°
2026-05-07 12:46 51.29671 9.84259 23274 ft 411 kts 339°
2026-05-07 12:46 51.32184 9.82704 22796 ft 408 kts 339°
2026-05-07 12:47 51.34828 9.81066 22284 ft 405 kts 338°
2026-05-07 12:47 51.37372 9.79487 21766 ft 402 kts 338°
2026-05-07 12:47 51.39940 9.77889 21242 ft 399 kts 338°
2026-05-07 12:47 51.42416 9.76347 20752 ft 395 kts 338°
2026-05-07 12:48 51.44912 9.74732 20263 ft 392 kts 336°
2026-05-07 12:48 51.47338 9.72881 19779 ft 388 kts 332°
2026-05-07 12:48 51.49682 9.70769 19290 ft 385 kts 329°
2026-05-07 12:48 51.51915 9.68535 18819 ft 381 kts 328°
2026-05-07 12:49 51.54086 9.66311 18359 ft 378 kts 327°
2026-05-07 12:49 51.56271 9.64067 17899 ft 375 kts 327°
2026-05-07 12:49 51.58459 9.61824 17427 ft 372 kts 327°
2026-05-07 12:49 51.60616 9.59613 16946 ft 370 kts 328°
2026-05-07 12:50 51.62783 9.57391 16478 ft 367 kts 328°
2026-05-07 12:50 51.64928 9.55192 16022 ft 364 kts 328°
2026-05-07 12:50 51.67075 9.53061 15547 ft 362 kts 331°
2026-05-07 12:50 51.69321 9.51303 15078 ft 359 kts 338°
2026-05-07 12:51 51.71652 9.49988 14630 ft 356 kts 344°
2026-05-07 12:51 51.74042 9.48906 14179 ft 354 kts 345°
2026-05-07 12:51 51.76418 9.47876 13729 ft 351 kts 346°
2026-05-07 12:51 51.78749 9.46869 13273 ft 349 kts 345°
2026-05-07 12:52 51.81106 9.45844 12866 ft 349 kts 345°
2026-05-07 12:52 51.83474 9.44808 12614 ft 352 kts 345°
2026-05-07 12:52 51.85834 9.43769 12218 ft 353 kts 346°
2026-05-07 12:52 51.88198 9.42727 11684 ft 349 kts 345°
2026-05-07 12:53 51.90517 9.41701 11364 ft 346 kts 345°
2026-05-07 12:53 51.92833 9.40673 11032 ft 345 kts 345°
2026-05-07 12:53 51.95118 9.39660 10700 ft 338 kts 345°
2026-05-07 12:53 51.97357 9.38665 10369 ft 330 kts 345°
2026-05-07 12:54 51.99564 9.37685 10038 ft 323 kts 346°
2026-05-07 12:54 52.01707 9.36734 9711 ft 316 kts 346°
2026-05-07 12:54 52.03807 9.35799 9376 ft 310 kts 346°
2026-05-07 12:54 52.05838 9.34894 9048 ft 304 kts 345°
2026-05-07 12:55 52.07840 9.33990 8726 ft 298 kts 345°
2026-05-07 12:55 52.09825 9.33091 8383 ft 292 kts 345°
2026-05-07 12:55 52.11741 9.32229 8040 ft 277 kts 345°
2026-05-07 12:55 52.13555 9.31418 7711 ft 272 kts 345°
2026-05-07 12:56 52.15405 9.30592 7375 ft 271 kts 345°
2026-05-07 12:56 52.17207 9.29785 7089 ft 270 kts 345°
2026-05-07 12:56 52.19019 9.28971 6825 ft 268 kts 346°
2026-05-07 12:56 52.20806 9.28168 6572 ft 267 kts 346°
2026-05-07 12:57 52.22607 9.27465 6310 ft 264 kts 355°
2026-05-07 12:57 52.24419 9.27565 6057 ft 261 kts 12°
2026-05-07 12:57 52.26149 9.28345 5810 ft 255 kts 18°
2026-05-07 12:57 52.27817 9.29219 5574 ft 249 kts 19°
2026-05-07 12:58 52.29475 9.30094 5315 ft 246 kts 18°
2026-05-07 12:58 52.31095 9.30939 5062 ft 245 kts 18°
2026-05-07 12:58 52.32711 9.31728 4823 ft 240 kts 14°
2026-05-07 12:58 52.34343 9.32204 4617 ft 234 kts
2026-05-07 12:59 52.35943 9.32379 4435 ft 227 kts
2026-05-07 12:59 52.37506 9.32485 4253 ft 223 kts
2026-05-07 12:59 52.39064 9.32584 4073 ft 223 kts
2026-05-07 12:59 52.40622 9.32685 3896 ft 222 kts
2026-05-07 13:00 52.42163 9.32787 3678 ft 220 kts
2026-05-07 13:00 52.43658 9.32886 3451 ft 213 kts
2026-05-07 13:00 52.45053 9.33500 3227 ft 202 kts 34°
2026-05-07 13:00 52.45972 9.35139 3021 ft 195 kts 67°
2026-05-07 13:01 52.46251 9.37225 2975 ft 185 kts 84°
2026-05-07 13:01 52.46286 9.39361 2993 ft 185 kts 87°
2026-05-07 13:01 52.46267 9.41460 3158 ft 187 kts 89°
2026-05-07 13:01 52.46218 9.43541 3086 ft 176 kts 90°
2026-05-07 13:02 52.46157 9.45529 2870 ft 170 kts 90°
2026-05-07 13:02 52.46096 9.47451 2640 ft 169 kts 90°
2026-05-07 13:02 52.46036 9.49360 2413 ft 168 kts 90°
2026-05-07 13:02 52.45977 9.51279 2184 ft 168 kts 90°
2026-05-07 13:03 52.45919 9.53192 1948 ft 161 kts 90°
2026-05-07 13:03 52.45865 9.54948 1755 ft 145 kts 90°
2026-05-07 13:03 52.45817 9.56531 1535 ft 132 kts 89°
2026-05-07 13:03 52.45774 9.58027 1361 ft 130 kts 89°
2026-05-07 13:04 52.45732 9.59503 1202 ft 131 kts 89°
2026-05-07 13:04 52.45688 9.61009 1023 ft 130 kts 89°
2026-05-07 13:04 52.45646 9.62488 850 ft 130 kts 91°
2026-05-07 13:04 52.45604 9.63974 666 ft 130 kts 91°
2026-05-07 13:05 52.45559 9.65463 485 ft 131 kts 92°
2026-05-07 13:05 52.45513 9.66971 307 ft 133 kts 91°
2026-05-07 13:05 52.45478 9.68460 192 ft 124 kts 91°
2026-05-07 13:05 52.45446 9.69593 192 ft 71 kts 92°
2026-05-07 13:06 52.45428 9.70266 192 ft 52 kts 92°
2026-05-07 13:06 52.45419 9.70594 192 ft 16 kts 91°
2026-05-07 13:06 52.45495 9.70670 192 ft 12 kts
2026-05-07 13:06 52.45555 9.70674 192 ft 6 kts
2026-05-07 13:07 52.45607 9.70676 192 ft 8 kts 352°
2026-05-07 13:07 52.45652 9.70601 192 ft 11 kts 281°
2026-05-07 13:07 52.45655 9.70457 192 ft 13 kts 271°
2026-05-07 13:07 52.45660 9.70284 192 ft 16 kts 274°
2026-05-07 13:08 52.45666 9.70067 192 ft 20 kts 272°
2026-05-07 13:08 52.45672 9.69831 192 ft 20 kts 272°
2026-05-07 13:08 52.45678 9.69596 192 ft 19 kts 273°
2026-05-07 13:08 52.45728 9.69475 192 ft 12 kts 335°
2026-05-07 13:09 52.45775 9.69421 192 ft 7 kts 12°
2026-05-07 13:09 52.45828 9.69454 192 ft 6 kts 22°
2026-05-07 13:09 52.45839 9.69462 192 ft 0 kts 23°